Flag Weather past 2 weeks in Brandon, Manitoba, Canada

Now
-4 °F

Partly cloudy.


Feels Like: -15 °F
Forecast: -12 / 1 °F
Wind: 5 mph from Northeast

Location: Brandon

Current Time: Nov 26, 2014 at 1:00:45 AM

Latest Report: Nov 26, 2014 at 12:00 AM


Visibility: 15 mi

Pressure: 30.40 "Hg

Humidity: 84%

Dew point: -8 °F

Location of BrandonLocation

Historic Weather in Brandon — Graph

°F

Brandon temperature yesterday

Maximum temperature yesterday: 18 °F (at 12:00 AM)
Minimum temperature yesterday: -4 °F (at 11:00 PM)
Average temperature yesterday: 11 °F

Past Weeks' High & Low Weather Summary

 TemperatureHumidityPressure
High45 °F (Nov 21, 2:00 PM)100% (Nov 22, 4:00 AM)30.67 "Hg (Nov 22, 4:00 AM)
Low-4 °F (Nov 25, 11:00 PM)38% (Nov 19, 3:00 PM)29.32 "Hg (Nov 22, 11:00 PM)
Average14 °F74%30.09 "Hg
* Reported Midnight between Nov 10 and Nov 11 — Midnight between Nov 25 and Nov 26, Brandon, Weather by CustomWeather, © 2014

Note: Actual official high and low records may vary slightly from our data, if they occured in-between our weather recording intervals... More about our weather records

Advertising

Brandon weather history for previous 24 hours

 ConditionsComfort  
Time TempWeatherWind HumidityBarometerVisibility
12:00 AM
Nov 26
-4 °FPartly cloudy.5 mph84%30.40 "Hg15 mi
11:00 PM
Nov 25
-4 °FPassing clouds.5 mph84%30.36 "Hg15 mi
10:00 PM-2 °FPassing clouds.9 mph84%30.32 "Hg15 mi
9:00 PM1 °FPassing clouds.9 mph85%30.28 "Hg15 mi
8:00 PM5 °FPassing clouds.13 mph78%30.25 "Hg15 mi
7:00 PM7 °FLight snow. Mostly cloudy.18 mph78%30.22 "Hg15 mi
6:00 PM7 °FLight snow. Overcast.9 mph85%30.18 "Hg12 mi
5:00 PM9 °FLight snow. Mostly cloudy.15 mph78%30.14 "Hg12 mi
4:00 PM10 °FLight snow. Cloudy.20 mph79%30.10 "Hg4 mi
3:00 PM12 °FLight snow. More clouds than sun.18 mph79%30.06 "Hg2 mi
2:00 PM12 °FLight snow. More clouds than sun.18 mph79%30.03 "Hg2 mi
1:50 PM14 °FLight snow. More clouds than sun.16 mph79%30.03 "Hg2 mi
1:00 PM12 °FLight snow. Ice fog.17 mph85%30.03 "Hg1 mi
12:47 PM12 °FLight snow. Overcast.16 mph85%30.02 "Hg1 mi
12:00 PM12 °FLight snow. Low clouds.17 mph85%30.01 "Hg4 mi
11:00 AM14 °FLight snow. Low clouds.14 mph85%30.02 "Hg4 mi
10:00 AM12 °FLight snow. Overcast.15 mph85%30.01 "Hg10 mi
9:00 AM12 °FOvercast.13 mph85%30.01 "Hg12 mi
8:54 AM12 °FOvercast.14 mph85%30.01 "Hg12 mi
8:00 AM12 °FLight snow. Low clouds.13 mph85%30.01 "Hg15 mi
7:00 AM14 °FLight snow. Low clouds.12 mph85%30.00 "Hg12 mi
6:00 AM18 °FOvercast.2 mph93%29.99 "Hg15 mi
5:00 AM18 °FOvercast.2 mph93%29.99 "Hg15 mi
4:00 AM18 °FOvercast.2 mph93%29.99 "Hg15 mi
3:00 AM18 °FOvercast.2 mph86%30.01 "Hg15 mi
2:00 AM16 °FMostly cloudy.3 mph93%30.01 "Hg15 mi
1:00 AM16 °FOvercast.6 mph86%30.03 "Hg15 mi
Weather by CustomWeather, © 2014

See weather overviewHow to use our weather pages